TimeAKDT,TemperatureF,Dew PointF,Humidity,Sea Level PressureIn,VisibilityMPH,Wind Direction,Wind SpeedMPH,Gust SpeedMPH,PrecipitationIn,Events,Conditions,WindDirDegrees,DateUTC
12:16 AM,37.4,32.0,81,30.35,10.0,ESE,6.9,-,N/A,,Overcast,110,2013-03-30 08:16:00
12:36 AM,37.4,32.0,81,30.35,10.0,ESE,10.4,-,N/A,,Overcast,120,2013-03-30 08:36:00
12:56 AM,37.4,30.2,75,30.35,10.0,ESE,8.1,-,N/A,,Overcast,110,2013-03-30 08:56:00
1:16 AM,37.4,30.2,75,30.34,10.0,ESE,8.1,-,N/A,,Overcast,110,2013-03-30 09:16:00
1:36 AM,37.4,30.2,75,30.34,10.0,ESE,9.2,-,N/A,,Overcast,110,2013-03-30 09:36:00
1:56 AM,35.6,30.2,81,30.34,10.0,ESE,9.2,-,N/A,,Overcast,110,2013-03-30 09:56:00
2:16 AM,35.6,30.2,81,30.33,10.0,ESE,9.2,-,N/A,,Overcast,110,2013-03-30 10:16:00
2:36 AM,37.4,30.2,75,30.33,10.0,ESE,10.4,-,N/A,,Overcast,110,2013-03-30 10:36:00
2:56 AM,37.4,30.2,75,30.33,10.0,ESE,9.2,-,N/A,,Overcast,110,2013-03-30 10:56:00
3:16 AM,35.6,30.2,81,30.32,10.0,East,9.2,-,N/A,,Overcast,100,2013-03-30 11:16:00
3:56 AM,37.4,30.2,75,30.32,10.0,ESE,10.4,-,0.01,,Overcast,120,2013-03-30 11:56:00
4:16 AM,35.6,30.2,81,30.32,10.0,ESE,8.1,16.1,N/A,,Overcast,120,2013-03-30 12:16:00
4:36 AM,35.6,30.2,81,30.32,10.0,ESE,12.7,16.1,0.01,,Overcast,120,2013-03-30 12:36:00
4:56 AM,35.6,32.0,87,30.32,10.0,ESE,9.2,18.4,0.01,,Overcast,120,2013-03-30 12:56:00
5:16 AM,35.6,32.0,87,30.32,10.0,ESE,11.5,17.3,N/A,,Overcast,110,2013-03-30 13:16:00
5:36 AM,35.6,30.2,81,30.32,10.0,ESE,10.4,17.3,0.01,,Overcast,120,2013-03-30 13:36:00
5:56 AM,35.6,32.0,87,30.31,10.0,ESE,10.4,-,0.01,,Overcast,110,2013-03-30 13:56:00
6:16 AM,35.6,32.0,87,30.32,10.0,ESE,9.2,17.3,N/A,,Overcast,120,2013-03-30 14:16:00
6:36 AM,35.6,32.0,87,30.32,10.0,ESE,8.1,-,0.01,,Overcast,120,2013-03-30 14:36:00
6:56 AM,35.6,32.0,87,30.33,10.0,ESE,11.5,16.1,0.01,,Overcast,120,2013-03-30 14:56:00
7:16 AM,35.6,32.0,87,30.33,10.0,ESE,8.1,-,N/A,,Overcast,120,2013-03-30 15:16:00
7:36 AM,35.6,32.0,87,30.34,10.0,ESE,8.1,-,N/A,,Overcast,120,2013-03-30 15:36:00
7:56 AM,35.6,32.0,87,30.34,10.0,ESE,11.5,17.3,N/A,,Overcast,120,2013-03-30 15:56:00
8:16 AM,35.6,32.0,87,30.34,10.0,SE,11.5,-,0.01,,Overcast,130,2013-03-30 16:16:00
8:36 AM,37.4,33.8,87,30.34,10.0,ESE,11.5,-,0.01,,Overcast,110,2013-03-30 16:36:00
8:56 AM,37.4,33.8,87,30.34,10.0,ESE,12.7,16.1,0.01,,Overcast,120,2013-03-30 16:56:00
9:16 AM,37.4,33.8,87,30.34,10.0,ESE,12.7,20.7,N/A,,Overcast,110,2013-03-30 17:16:00
9:36 AM,37.4,33.8,87,30.35,10.0,ESE,13.8,-,N/A,,Overcast,120,2013-03-30 17:36:00
9:56 AM,37.4,33.8,87,30.35,10.0,ESE,10.4,18.4,N/A,,Overcast,120,2013-03-30 17:56:00
10:16 AM,37.4,33.8,87,30.36,10.0,ESE,8.1,17.3,0.01,,Overcast,120,2013-03-30 18:16:00
10:36 AM,37.4,33.8,87,30.36,10.0,ESE,8.1,-,0.01,,Overcast,120,2013-03-30 18:36:00
10:56 AM,39.2,33.8,81,30.36,10.0,ESE,11.5,16.1,0.01,,Overcast,120,2013-03-30 18:56:00
11:16 AM,39.2,35.6,87,30.37,10.0,SE,12.7,16.1,N/A,,Overcast,130,2013-03-30 19:16:00
11:36 AM,39.2,35.6,87,30.37,10.0,ESE,10.4,-,N/A,,Overcast,120,2013-03-30 19:36:00
11:56 AM,39.2,35.6,87,30.37,10.0,ESE,12.7,-,N/A,,Overcast,120,2013-03-30 19:56:00
12:16 PM,39.2,35.6,87,30.38,10.0,ESE,9.2,-,N/A,,Overcast,120,2013-03-30 20:16:00
12:36 PM,39.2,35.6,87,30.38,10.0,ESE,9.2,-,N/A,,Overcast,120,2013-03-30 20:36:00
12:56 PM,41.0,35.6,81,30.38,10.0,SE,11.5,-,N/A,,Overcast,130,2013-03-30 20:56:00
1:16 PM,41.0,35.6,81,30.38,10.0,SE,8.1,-,N/A,,Overcast,130,2013-03-30 21:16:00
1:36 PM,41.0,35.6,81,30.38,10.0,SE,8.1,-,N/A,,Overcast,130,2013-03-30 21:36:00
1:56 PM,42.8,37.4,81,30.38,10.0,SE,11.5,-,N/A,,Overcast,130,2013-03-30 21:56:00
2:16 PM,42.8,37.4,81,30.39,10.0,ESE,10.4,-,N/A,,Overcast,120,2013-03-30 22:16:00
2:36 PM,42.8,37.4,81,30.38,10.0,SE,8.1,-,N/A,,Overcast,140,2013-03-30 22:36:00
2:56 PM,42.8,37.4,81,30.38,10.0,ESE,10.4,-,N/A,,Overcast,120,2013-03-30 22:56:00
3:16 PM,42.8,37.4,81,30.38,10.0,SE,8.1,-,N/A,,Mostly Cloudy,140,2013-03-30 23:16:00
3:36 PM,42.8,37.4,81,30.38,10.0,SE,8.1,-,N/A,,Overcast,140,2013-03-30 23:36:00
3:56 PM,42.8,37.4,81,30.38,10.0,SE,11.5,-,N/A,,Overcast,140,2013-03-30 23:56:00
4:16 PM,42.8,37.4,81,30.39,10.0,SE,8.1,-,N/A,,Overcast,130,2013-03-31 00:16:00
4:36 PM,42.8,37.4,81,30.38,10.0,SE,8.1,-,N/A,,Overcast,130,2013-03-31 00:36:00
4:56 PM,42.8,37.4,81,30.39,10.0,SE,6.9,-,N/A,,Overcast,130,2013-03-31 00:56:00
5:16 PM,42.8,37.4,81,30.39,10.0,SE,6.9,-,N/A,,Overcast,130,2013-03-31 01:16:00
5:36 PM,42.8,37.4,81,30.39,10.0,SE,9.2,-,N/A,,Overcast,130,2013-03-31 01:36:00
5:56 PM,42.8,37.4,81,30.38,10.0,SE,10.4,-,N/A,,Overcast,130,2013-03-31 01:56:00
6:16 PM,42.8,37.4,81,30.39,10.0,ESE,6.9,-,N/A,,Overcast,120,2013-03-31 02:16:00
6:36 PM,41.0,37.4,87,30.39,10.0,ESE,6.9,-,N/A,,Overcast,120,2013-03-31 02:36:00
6:56 PM,41.0,35.6,81,30.38,10.0,ESE,6.9,-,N/A,,Overcast,110,2013-03-31 02:56:00
7:16 PM,41.0,37.4,87,30.38,10.0,ESE,6.9,-,N/A,,Overcast,110,2013-03-31 03:16:00
7:36 PM,41.0,35.6,81,30.39,10.0,ESE,6.9,-,N/A,,Overcast,120,2013-03-31 03:36:00
7:56 PM,41.0,35.6,81,30.39,10.0,ESE,8.1,-,N/A,,Overcast,110,2013-03-31 03:56:00
8:16 PM,39.2,35.6,87,30.40,10.0,ESE,6.9,-,N/A,,Overcast,110,2013-03-31 04:16:00
8:36 PM,39.2,35.6,87,30.40,10.0,ESE,5.8,-,N/A,,Overcast,110,2013-03-31 04:36:00
8:56 PM,39.2,35.6,87,30.40,10.0,ESE,4.6,-,N/A,,Overcast,110,2013-03-31 04:56:00
9:16 PM,39.2,35.6,87,30.40,10.0,ESE,5.8,-,N/A,,Overcast,110,2013-03-31 05:16:00
9:36 PM,39.2,35.6,87,30.39,10.0,ESE,6.9,-,N/A,,Overcast,110,2013-03-31 05:36:00
9:56 PM,39.2,35.6,87,30.39,10.0,East,8.1,-,N/A,,Overcast,100,2013-03-31 05:56:00
10:16 PM,39.2,35.6,87,30.39,10.0,ESE,4.6,-,N/A,,Overcast,120,2013-03-31 06:16:00
10:36 PM,39.2,35.6,87,30.40,10.0,ESE,5.8,-,N/A,,Overcast,120,2013-03-31 06:36:00
10:56 PM,39.2,35.6,87,30.39,10.0,East,6.9,-,N/A,,Overcast,100,2013-03-31 06:56:00
11:16 PM,39.2,35.6,87,30.39,10.0,ESE,4.6,-,N/A,,Overcast,110,2013-03-31 07:16:00
11:36 PM,39.2,35.6,87,30.39,10.0,East,4.6,-,N/A,,Overcast,90,2013-03-31 07:36:00
11:56 PM,39.2,35.6,87,30.39,10.0,ESE,5.8,-,N/A,,Overcast,110,2013-03-31 07:56:00